0 HST 1 20580U 90037B 25296.94373471 .00009822 00000-0 35073-3 0 9998 2 20580 28.4684 251.1863 0002172 44.1900 315.8869 15.27106254752372 0 ISS (ZARYA) 1 25544U 98067A 25296.68500554 .00016678 00000-0 30600-3 0 9997 2 25544 51.6348 30.2896 0004513 329.2720 30.8004 15.49389998535097 0 CXO 1 25867U 99040B 25299.01581391 .00000853 00000-0 00000+0 0 9990 2 25867 52.0858 124.3383 8218278 310.6210 0.1219 0.37802417 16430